DW4993 Weather Reports


Display with metric or nautical units.
time (UTC)temp
F
wind
direction
speed
MPH
gust
MPH
rain 1hr
in
rain 24hr
in
rain mn
in
humidity
%
barometer
mb
20260509214305 64 274 2.0 3.0 0.00 0.00 0.00 36 1012.6
20260509213805 64 284 1.0 3.0 0.00 0.00 0.00 37 1012.6
20260509213305 64 284 0.0 3.0 0.00 0.00 0.00 38 1012.5
20260509212804 64 284 2.0 3.0 0.00 0.00 0.00 35 1012.6
20260509212306 65 270 3.0 6.0 0.00 0.00 0.00 35 1012.7
20260509211305 65 297 2.0 3.0 0.00 0.00 0.00 35 1012.6
20260509210805 65 293 1.0 3.0 0.00 0.00 0.00 37 1012.5
20260509210304 65 277 2.0 3.0 0.00 0.00 0.00 37 1012.5
20260509205805 65 252 2.0 5.0 0.00 0.00 0.00 37 1012.5
20260509205307 65 333 1.0 3.0 0.00 0.00 0.00 35 1012.5
20260509204805 65 312 1.0 3.0 0.00 0.00 0.00 37 1012.6
20260509203805 66 212 4.0 7.0 0.00 0.00 0.00 35 1012.6
20260509202804 65 253 1.0 3.0 0.00 0.00 0.00 36 1012.6
20260509202306 65 229 2.0 3.0 0.00 0.00 0.00 35 1012.6
20260509201804 65 224 1.0 3.0 0.00 0.00 0.00 36 1012.7
20260509200805 65 231 1.0 3.0 0.00 0.00 0.00 37 1012.7
20260509200304 65 316 2.0 3.0 0.00 0.00 0.00 36 1012.7
20260509195805 65 318 1.0 3.0 0.00 0.00 0.00 37 1012.8
20260509195306 65 354 0.0 2.0 0.00 0.00 0.00 37 1012.8
20260509194804 65 354 0.0 3.0 0.00 0.00 0.00 38 1012.8
20260509193305 65 358 4.0 8.0 0.00 0.00 0.00 38 1012.9
20260509192804 65 352 2.0 5.0 0.00 0.00 0.00 41 1012.8
20260509191305 64 280 3.0 7.0 0.00 0.00 0.00 38 1012.9
20260509190804 64 239 1.0 5.0 0.00 0.00 0.00 39 1012.9
20260509190305 64 280 1.0 3.0 0.00 0.00 0.00 39 1012.9
20260509185805 64 281 2.0 3.0 0.00 0.00 0.00 38 1012.8
20260509185306 64 247 2.0 6.0 0.00 0.00 0.00 38 1012.9
20260509184304 64 301 2.0 3.0 0.00 0.00 0.00 40 1012.9
20260509183805 64 272 2.0 3.0 0.00 0.00 0.00 40 1012.9
20260509183305 63 250 1.0 3.0 0.00 0.00 0.00 40 1012.9
20260509182804 63 190 2.0 3.0 0.00 0.00 0.00 41 1012.9
20260509181805 64 308 2.0 3.0 0.00 0.00 0.00 42 1012.9
20260509181304 64 12 2.0 5.0 0.00 0.00 0.00 43 1012.9
20260509180805 63 29 1.0 3.0 0.00 0.00 0.00 44 1012.9
20260509180305 63 29 1.0 3.0 0.00 0.00 0.00 44 1012.9
20260509175806 63 49 1.0 3.0 0.00 0.00 0.00 44 1012.8
20260509174805 63 43 2.0 3.0 0.00 0.00 0.00 44 1012.9
20260509174305 62 73 2.0 7.0 0.00 0.00 0.00 44 1012.9
20260509173805 62 29 1.0 3.0 0.00 0.00 0.00 47 1012.9
20260509172306 60 329 2.0 3.0 0.00 0.00 0.00 47 1012.9
20260509171305 59 1 1.0 3.0 0.00 0.00 0.00 51 1013.0
20260509170804 58 3 1.0 3.0 0.00 0.00 0.00 48 1013.0
20260509165805 58 3 0.0 3.0 0.00 0.00 0.00 49 1013.0
20260509165306 58 3 1.0 3.0 0.00 0.00 0.00 47 1013.0
20260509164305 57 16 2.0 3.0 0.00 0.00 0.00 50 1013.0
20260509163305 57 84 0.0 1.0 0.00 0.00 0.00 49 1013.0
20260509162804 56 84 1.0 3.0 0.00 0.00 0.00 47 1013.0
20260509162307 56 85 0.0 1.0 0.00 0.00 0.00 47 1013.1
20260509161304 56 86 0.0 2.0 0.00 0.00 0.00 45 1013.0
20260509160805 55 86 1.0 2.0 0.00 0.00 0.00 46 1012.9
20260509160304 55 86 1.0 2.0 0.00 0.00 0.00 44 1012.9
20260509155805 54 86 0.0 2.0 0.00 0.00 0.00 46 1012.8
20260509155306 54 86 1.0 2.0 0.00 0.00 0.00 46 1012.8
20260509154304 53 89 0.0 2.0 0.00 0.00 0.00 48 1012.7
20260509153806 53 89 1.0 3.0 0.00 0.00 0.00 48 1012.7
20260509153305 53 94 2.0 3.0 0.00 0.00 0.00 47 1012.7
20260509152804 53 94 2.0 3.0 0.00 0.00 0.00 47 1012.7
20260509152306 53 90 2.0 3.0 0.00 0.00 0.00 47 1012.7
20260509151805 53 88 0.0 3.0 0.00 0.00 0.00 47 1012.7
20260509151304 53 88 0.0 0.0 0.00 0.00 0.00 47 1012.6
20260509150804 53 88 0.0 0.0 0.00 0.00 0.00 47 1012.6
20260509145806 53 88 0.0 3.0 0.00 0.00 0.00 47 1012.6
20260509145306 53 88 0.0 0.0 0.00 0.00 0.00 47 1012.6
20260509144804 53 88 0.0 0.0 0.00 0.00 0.00 47 1012.6
20260509144305 53 88 0.0 0.0 0.00 0.00 0.00 47 1012.5
20260509143805 53 88 0.0 0.0 0.00 0.00 0.00 47 1012.5
20260509142804 52 88 0.0 0.0 0.00 0.00 0.00 47 1012.3
20260509142307 52 88 0.0 0.0 0.00 0.00 0.00 47 1012.2
20260509141805 52 88 0.0 0.0 0.00 0.00 0.00 47 1012.1
20260509141304 52 88 0.0 0.0 0.00 0.00 0.00 48 1012.1
20260509140805 52 88 0.0 0.0 0.00 0.00 0.00 49 1012.0
20260509140304 51 88 0.0 0.0 0.00 0.00 0.00 51 1012.0
20260509135805 51 88 0.0 0.0 0.00 0.00 0.00 52 1011.9
20260509135306 51 88 0.0 0.0 0.00 0.00 0.00 54 1011.8
20260509134804 51 88 0.0 0.0 0.00 0.00 0.00 53 1011.7
20260509134305 50 88 0.0 0.0 0.00 0.00 0.00 54 1011.8
20260509133805 50 88 0.0 0.0 0.00 0.00 0.00 55 1011.6
20260509133304 50 88 0.0 0.0 0.00 0.00 0.00 56 1011.7
20260509132805 49 88 0.0 0.0 0.00 0.00 0.00 57 1011.6
20260509132306 49 88 0.0 0.0 0.00 0.00 0.00 57 1011.5
20260509131805 49 88 0.0 0.0 0.00 0.00 0.00 56 1011.5
20260509131304 49 88 0.0 0.0 0.00 0.00 0.00 57 1011.5
20260509130804 49 88 0.0 0.0 0.00 0.00 0.00 57 1011.4
20260509130305 48 88 0.0 0.0 0.00 0.00 0.00 55 1011.4
20260509125307 48 88 0.0 0.0 0.00 0.00 0.00 54 1011.3
20260509124804 48 88 0.0 0.0 0.00 0.00 0.00 53 1011.3
20260509124305 48 88 0.0 0.0 0.00 0.00 0.00 53 1011.2
20260509123805 48 88 0.0 0.0 0.00 0.00 0.00 52 1011.2
20260509123304 48 88 0.0 0.0 0.00 0.00 0.00 51 1011.1
20260509122805 49 88 0.0 0.0 0.00 0.00 0.00 50 1011.1
20260509122306 49 88 0.0 0.0 0.00 0.00 0.00 50 1011.0
20260509121805 49 88 0.0 0.0 0.00 0.00 0.00 50 1010.9
20260509121304 49 88 0.0 0.0 0.00 0.00 0.00 50 1010.8
20260509120804 49 88 0.0 0.0 0.00 0.00 0.00 49 1010.8
20260509120304 49 88 0.0 0.0 0.00 0.00 0.00 49 1010.8
20260509115805 49 88 0.0 0.0 0.00 0.00 0.00 48 1010.8
20260509115307 49 88 0.0 0.0 0.00 0.00 0.00 47 1010.7
20260509114804 50 88 0.0 1.0 0.00 0.00 0.00 47 1010.7
20260509114305 50 88 1.0 2.0 0.00 0.00 0.00 48 1010.7
20260509113805 50 88 0.0 0.0 0.00 0.00 0.00 48 1010.7
20260509112307 50 88 0.0 0.0 0.00 0.00 0.00 49 1010.6
20260509111304 50 88 0.0 0.0 0.00 0.00 0.00 49 1010.5
20260509110805 50 88 0.0 0.0 0.00 0.00 0.00 50 1010.5
20260509110305 50 88 0.0 0.0 0.00 0.00 0.00 50 1010.5
20260509105805 51 88 0.0 0.0 0.00 0.00 0.00 50 1010.5
20260509105306 50 88 1.0 3.0 0.00 0.00 0.00 49 1010.5
20260509104804 50 88 0.0 3.0 0.00 0.00 0.00 49 1010.6
20260509104306 50 88 0.0 0.0 0.00 0.00 0.00 49 1010.6
20260509103304 50 88 0.0 0.0 0.00 0.00 0.00 50 1010.5
20260509102805 50 88 0.0 0.0 0.00 0.00 0.00 50 1010.5
20260509102306 50 88 0.0 0.0 0.00 0.00 0.00 50 1010.5
20260509101804 50 88 0.0 0.0 0.00 0.00 0.00 50 1010.5
20260509101304 50 88 0.0 2.0 0.00 0.00 0.00 51 1010.4
20260509100805 50 88 1.0 3.0 0.00 0.00 0.00 51 1010.4
20260509100306 49 91 0.0 0.0 0.00 0.00 0.00 50 1010.4
20260509095804 49 91 0.0 0.0 0.00 0.00 0.00 51 1010.4
20260509095306 49 91 0.0 0.0 0.00 0.00 0.00 51 1010.4
20260509094805 49 91 0.0 0.0 0.00 0.00 0.00 50 1010.3
20260509093804 49 91 0.0 0.0 0.00 0.00 0.00 52 1010.3
20260509093305 49 91 0.0 0.0 0.00 0.00 0.00 53 1010.3
20260509092306 49 91 0.0 0.0 0.00 0.00 0.00 52 1010.3
20260509091804 49 91 0.0 0.0 0.00 0.00 0.00 50 1010.2
20260509091305 49 91 0.0 0.0 0.00 0.00 0.00 50 1010.2
20260509090805 50 91 0.0 0.0 0.00 0.00 0.00 49 1010.2
20260509090305 50 91 0.0 0.0 0.00 0.00 0.00 48 1010.2
20260509085804 50 91 0.0 0.0 0.00 0.00 0.00 48 1010.2
20260509085306 50 91 0.0 0.0 0.00 0.00 0.00 47 1010.2
20260509084304 51 91 0.0 0.0 0.00 0.00 0.00 45 1010.1
20260509083304 51 91 0.0 0.0 0.00 0.00 0.00 45 1010.1
20260509082805 51 91 0.0 0.0 0.00 0.00 0.00 45 1010.1
20260509082307 51 91 0.0 0.0 0.00 0.00 0.00 45 1010.0
20260509081804 52 91 0.0 0.0 0.00 0.00 0.00 45 1010.0
20260509080805 52 91 0.0 0.0 0.00 0.00 0.00 45 1010.0
20260509080304 52 91 0.0 0.0 0.00 0.00 0.00 44 1010.0
20260509075805 52 91 0.0 0.0 0.00 0.00 0.00 44 1010.0
20260509075306 52 91 0.0 0.0 0.00 0.00 0.00 44 1010.0
20260509074805 52 91 0.0 0.0 0.00 0.00 0.00 43 1010.0
20260509074304 52 91 0.0 0.0 0.00 0.00 0.00 43 1010.0
20260509073804 53 91 0.0 0.0 0.00 0.00 0.00 42 1010.0
20260509073304 53 91 0.0 0.0 0.00 0.00 0.00 41 1010.0
20260509072805 53 91 0.0 0.0 0.00 0.00 0.00 41 1010.0
20260509071804 54 91 0.0 0.0 0.00 0.00 0.00 40 1010.0
20260509071304 54 91 0.0 0.0 0.00 0.00 0.00 40 1009.9
20260509070805 54 91 0.0 2.0 0.00 0.00 0.00 40 1010.0
20260509070304 54 91 0.0 2.0 0.00 0.00 0.00 40 1009.9
20260509065804 54 92 1.0 3.0 0.00 0.00 0.00 39 1009.8
20260509065306 55 92 0.0 2.0 0.00 0.00 0.00 39 1009.8
20260509064805 55 92 0.0 3.0 0.00 0.00 0.00 39 1009.8
20260509063305 55 93 2.0 5.0 0.00 0.00 0.00 38 1009.4
20260509062306 55 98 2.0 3.0 0.00 0.00 0.00 37 1009.4
20260509061805 56 98 1.0 3.0 0.00 0.00 0.00 37 1009.3
20260509061304 56 93 2.0 5.0 0.00 0.00 0.00 37 1009.3
20260509060820 56 98 3.0 7.0 0.00 0.00 0.00 36 1009.3
20260509060304 56 124 2.0 3.0 0.00 0.00 0.00 36 1009.3
20260509055804 56 89 2.0 5.0 0.00 0.00 0.00 36 1009.3
20260509055306 56 106 2.0 5.0 0.00 0.00 0.00 36 1009.3
20260509054805 57 95 1.0 3.0 0.00 0.00 0.00 35 1009.3
20260509054305 57 100 1.0 3.0 0.00 0.00 0.00 35 1009.2
20260509053804 57 106 2.0 7.0 0.00 0.00 0.00 35 1009.1
20260509053304 57 71 2.0 5.0 0.00 0.00 0.00 34 1009.1
20260509052806 57 77 3.0 5.0 0.00 0.00 0.00 34 1009.1
20260509052307 58 106 2.0 6.0 0.00 0.00 0.00 34 1009.1
20260509051805 58 115 3.0 7.0 0.00 0.00 0.00 34 1009.1
20260509051305 58 107 3.0 8.0 0.00 0.00 0.00 34 1009.0
20260509050806 58 90 1.0 7.0 0.00 0.00 0.00 33 1008.9
20260509050304 58 96 2.0 9.0 0.00 0.00 0.00 33 1008.8
20260509045804 58 87 2.0 5.0 0.00 0.00 0.00 33 1008.7
20260509044805 58 82 3.0 6.0 0.00 0.00 0.00 34 1008.7
20260509043805 58 38 2.0 3.0 0.00 0.00 0.00 33 1008.6
20260509043304 59 37 3.0 6.0 0.00 0.00 0.00 33 1008.6
20260509042805 59 62 2.0 3.0 0.00 0.00 0.00 32 1008.6
20260509042307 59 81 2.0 7.0 0.00 0.00 0.00 32 1008.5
20260509041804 59 88 2.0 6.0 0.00 0.00 0.00 32 1008.5
20260509040805 59 70 2.0 3.0 0.00 0.00 0.00 32 1008.3
20260509040305 59 72 2.0 6.0 0.00 0.00 0.00 32 1008.3
20260509035804 59 100 1.0 3.0 0.00 0.00 0.00 32 1008.2
20260509034805 60 103 1.0 3.0 0.00 0.00 0.00 32 1008.1
20260509034304 60 103 1.0 3.0 0.00 0.00 0.00 31 1008.0
20260509033804 60 91 1.0 3.0 0.00 0.00 0.00 31 1007.9
20260509033305 60 93 1.0 3.0 0.00 0.00 0.00 31 1007.8
20260509032805 60 69 1.0 3.0 0.00 0.00 0.00 31 1007.7
20260509032306 60 60 1.0 3.0 0.00 0.00 0.00 31 1007.6
20260509031804 61 75 1.0 7.0 0.00 0.00 0.00 31 1007.5
20260509031305 61 62 2.0 7.0 0.00 0.00 0.00 31 1007.4
20260509030804 61 80 3.0 6.0 0.00 0.00 0.00 30 1007.3
20260509030304 61 74 1.0 7.0 0.00 0.00 0.00 30 1007.2
20260509025804 61 82 2.0 5.0 0.00 0.00 0.00 29 1007.1
20260509025307 61 99 4.0 9.0 0.00 0.00 0.00 29 1007.0
20260509024805 62 56 2.0 8.0 0.00 0.00 0.00 29 1006.9
20260509024304 62 38 2.0 6.0 0.00 0.00 0.00 29 1006.9
20260509023804 62 53 2.0 8.0 0.00 0.00 0.00 29 1006.8
20260509022804 62 34 2.0 6.0 0.00 0.00 0.00 28 1006.7
20260509022306 63 54 2.0 5.0 0.00 0.00 0.00 28 1006.6
20260509021305 63 50 3.0 12.0 0.00 0.00 0.00 27 1006.5
20260509020804 63 60 3.0 6.0 0.00 0.00 0.00 27 1006.5
20260509020304 63 64 2.0 7.0 0.00 0.00 0.00 27 1006.4
20260509015805 63 52 2.0 9.0 0.00 0.00 0.00 27 1006.4
20260509015306 64 71 3.0 12.0 0.00 0.00 0.00 27 1006.4
20260509014804 64 57 3.0 7.0 0.00 0.00 0.00 27 1006.3
20260509013805 64 31 2.0 6.0 0.00 0.00 0.00 26 1006.3
20260509013304 64 44 2.0 5.0 0.00 0.00 0.00 26 1006.3
20260509012804 64 65 5.0 10.0 0.00 0.00 0.00 26 1006.3
20260509011805 64 42 3.0 9.0 0.00 0.00 0.00 26 1006.2
20260509011304 64 67 6.0 12.0 0.00 0.00 0.00 26 1006.2
20260509010805 65 56 5.0 12.0 0.00 0.00 0.00 26 1006.2
20260509005805 65 58 4.0 14.0 0.00 0.00 0.00 25 1006.1
20260509005306 65 61 7.0 12.0 0.00 0.00 0.00 25 1006.1
20260509004804 65 55 5.0 12.0 0.00 0.00 0.00 25 1006.1
20260509004304 65 60 3.0 10.0 0.00 0.00 0.00 26 1006.0
20260509003805 65 53 5.0 12.0 0.00 0.00 0.00 25 1006.0
20260509003305 66 49 7.0 12.0 0.00 0.00 0.00 25 1006.0
20260509002805 66 22 4.0 14.0 0.00 0.00 0.00 26 1006.0
20260509002306 66 37 3.0 8.0 0.00 0.00 0.00 25 1006.0
20260509001804 66 51 5.0 9.0 0.00 0.00 0.00 25 1006.0
20260509001304 66 39 5.0 9.0 0.00 0.00 0.00 25 1006.0
20260509000804 66 31 4.0 9.0 0.00 0.00 0.00 25 1005.9
20260509000305 66 25 4.0 10.0 0.00 0.00 0.00 24 1006.0
20260508235804 66 57 5.0 9.0 0.00 0.00 0.00 24 1005.9
20260508235306 66 70 3.0 9.0 0.00 0.00 0.00 25 1005.9
20260508234804 66 56 3.0 10.0 0.00 0.00 0.00 24 1006.0
20260508233804 67 61 6.0 12.0 0.00 0.00 0.00 24 1006.0
20260508233304 67 69 5.0 13.0 0.00 0.00 0.00 24 1006.0
20260508232804 67 23 5.0 10.0 0.00 0.00 0.00 24 1006.0
20260508232307 67 47 5.0 12.0 0.00 0.00 0.00 24 1006.0
20260508231804 67 46 3.0 12.0 0.00 0.00 0.00 24 1005.9
20260508231304 68 47 5.0 12.0 0.00 0.00 0.00 23 1005.9
20260508230805 68 39 4.0 12.0 0.00 0.00 0.00 23 1005.8
20260508225804 69 38 6.0 12.0 0.00 0.00 0.00 24 1005.8
20260508225306 69 32 4.0 12.0 0.00 0.00 0.00 23 1005.7
20260508224805 69 40 4.0 9.0 0.00 0.00 0.00 23 1005.7
20260508224304 69 46 5.0 9.0 0.00 0.00 0.00 22 1005.6
20260508223804 69 44 5.0 12.0 0.00 0.00 0.00 22 1005.6
20260508223304 70 49 6.0 13.0 0.00 0.00 0.00 22 1005.6
20260508222805 70 42 5.0 12.0 0.00 0.00 0.00 23 1005.7
20260508222306 70 25 8.0 14.0 0.00 0.00 0.00 22 1005.6
20260508221804 70 46 4.0 12.0 0.00 0.00 0.00 23 1005.7
20260508221304 70 38 6.0 14.0 0.00 0.00 0.00 22 1005.7
20260508220805 71 39 5.0 13.0 0.00 0.00 0.00 21 1005.6
20260508220304 70 67 6.0 12.0 0.00 0.00 0.00 22 1005.6